CW3742 Weather Reports


Display with metric or nautical units.
time (UTC)temp
F
wind
direction
speed
MPH
gust
MPH
rain 1hr
in
rain 24hr
in
rain mn
in
humidity
%
barometer
mb
20260508070017 56 0 6.0 10.0 0.00 0.01 0.00 71 990.7
20260508063017 56 0 6.0 10.0 0.00 0.01 0.00 72 991.1
20260508060017 55 0 5.0 9.0 0.00 0.01 0.00 73 991.4
20260508053017 54 0 5.0 8.0 0.00 0.01 0.00 74 991.4
20260508050017 54 0 5.0 9.0 0.00 0.01 0.01 73 991.5
20260508043017 54 0 5.0 7.0 0.00 0.01 0.01 73 991.7
20260508040037 54 0 5.0 7.0 0.00 0.01 0.01 74 991.8
20260508033017 54 0 5.0 7.0 0.00 0.01 0.01 74 991.6
20260508030017 55 0 5.0 6.0 0.00 0.01 0.01 72 991.5
20260508023037 55 0 5.0 7.0 0.00 0.01 0.01 71 991.4
20260508020017 56 0 4.0 6.0 0.00 0.01 0.01 68 991.1
20260508013017 57 0 4.0 7.0 0.00 0.01 0.01 67 990.9
20260508010017 57 0 3.0 5.0 0.01 0.01 0.01 68 990.8
20260508003017 60 0 2.0 7.0 0.01 0.01 0.01 64 990.7
20260508000017 62 0 1.0 4.0 0.00 0.00 0.00 56 991.0
20260507233037 62 0 3.0 5.0 0.00 0.00 0.00 57 990.8
20260507230017 63 0 2.0 4.0 0.00 0.00 0.00 52 991.0
20260507223017 62 0 11.0 23.0 0.00 0.00 0.00 58 991.3
20260507220017 66 0 5.0 13.0 0.00 0.00 0.00 47 991.1
20260507213017 63 0 4.0 12.0 0.00 0.00 0.00 57 991.2
20260507210037 58 0 16.0 43.0 0.00 0.00 0.00 65 991.6
20260507203017 64 0 11.0 27.0 0.00 0.00 0.00 44 991.6
20260507200017 66 0 7.0 19.0 0.00 0.00 0.00 43 991.9
20260507193017 66 0 8.0 19.0 0.00 0.00 0.00 43 992.4
20260507190017 65 0 8.0 22.0 0.00 0.00 0.00 45 992.7
20260507183017 63 0 6.0 16.0 0.00 0.00 0.00 47 993.0
20260507180017 63 0 7.0 17.0 0.00 0.00 0.00 48 993.4
20260507173018 62 0 10.0 22.0 0.00 0.00 0.00 50 993.9
20260507170017 60 0 11.0 24.0 0.00 0.00 0.00 52 994.3
20260507163017 59 0 8.0 27.0 0.00 0.00 0.00 53 994.6
20260507160017 58 0 10.0 21.0 0.00 0.00 0.00 54 994.8
20260507153017 56 0 10.0 21.0 0.00 0.00 0.00 55 994.9
20260507150018 56 0 10.0 23.0 0.00 0.00 0.00 55 994.9
20260507143037 56 0 17.0 23.0 0.00 0.00 0.00 55 994.5
20260507140017 53 0 13.0 21.0 0.00 0.00 0.00 56 994.5
20260507133017 51 0 10.0 20.0 0.00 0.00 0.00 56 994.8
20260507130017 51 0 11.0 21.0 0.00 0.00 0.00 57 995.4
20260507123017 46 0 6.0 10.0 0.00 0.00 0.00 65 995.4
20260507120017 43 0 6.0 9.0 0.00 0.00 0.00 69 995.4
20260507113017 42 0 6.0 9.0 0.00 0.00 0.00 69 995.6
20260507110017 41 0 7.0 10.0 0.00 0.00 0.00 70 995.4
20260507103017 40 0 7.0 10.0 0.00 0.00 0.00 71 995.6
20260507100017 41 0 6.0 9.0 0.00 0.00 0.00 68 995.6
20260507093017 42 0 5.0 7.0 0.00 0.00 0.00 64 995.8
20260507090017 43 0 5.0 7.0 0.00 0.00 0.00 63 996.1
20260507083019 43 0 4.0 6.0 0.00 0.00 0.00 61 996.3
20260507080017 43 0 4.0 5.0 0.00 0.00 0.00 60 996.3
20260507073017 44 0 4.0 6.0 0.00 0.00 0.00 58 996.5